TimeCDT,TemperatureF,Dew PointF,Humidity,Sea Level PressureIn,VisibilityMPH,Wind Direction,Wind SpeedMPH,Gust SpeedMPH,PrecipitationIn,Events,Conditions,WindDirDegrees,DateUTC
12:54 AM,48.0,46.0,93,30.26,5.0,SE,9.2,-,0.00,Rain,Light Rain,130,2013-04-27 05:54:00
1:54 AM,48.0,46.0,93,30.23,3.0,East,9.2,-,0.02,Rain,Light Rain,80,2013-04-27 06:54:00
2:38 AM,48.0,46.0,93,30.20,5.0,East,8.1,-,0.02,Rain,Rain,80,2013-04-27 07:38:00
2:54 AM,48.0,46.0,93,30.19,5.0,East,6.9,-,0.05,Rain,Light Rain,90,2013-04-27 07:54:00
3:27 AM,48.0,46.0,93,30.20,6.0,ESE,6.9,-,0.01,Rain,Light Rain,120,2013-04-27 08:27:00
3:54 AM,48.0,46.0,93,30.19,5.0,ESE,9.2,-,0.02,,Overcast,110,2013-04-27 08:54:00
4:18 AM,48.0,46.0,93,30.18,4.0,ESE,9.2,-,0.00,Rain,Light Rain,110,2013-04-27 09:18:00
4:54 AM,48.0,46.0,93,30.17,9.0,ESE,10.4,-,0.01,,Overcast,110,2013-04-27 09:54:00
5:32 AM,48.0,46.0,93,30.14,8.0,East,9.2,-,0.01,Rain,Light Rain,100,2013-04-27 10:32:00
5:54 AM,48.0,46.0,93,30.15,10.0,East,8.1,-,0.01,,Overcast,100,2013-04-27 10:54:00
6:29 AM,48.0,46.0,93,30.15,8.0,ESE,6.9,-,N/A,,Overcast,110,2013-04-27 11:29:00
6:50 AM,48.2,46.4,93,30.14,2.0,East,9.2,-,0.00,Rain,Light Rain,100,2013-04-27 11:50:00
6:54 AM,48.0,46.0,93,30.15,2.0,East,9.2,-,0.01,Rain,Light Rain,100,2013-04-27 11:54:00
7:07 AM,48.0,46.0,93,30.14,3.0,East,9.2,-,0.00,,Overcast,100,2013-04-27 12:07:00
7:19 AM,48.0,46.0,93,30.14,4.0,East,8.1,-,0.00,,Overcast,90,2013-04-27 12:19:00
7:54 AM,48.0,46.0,93,30.15,6.0,East,9.2,-,0.00,,Overcast,90,2013-04-27 12:54:00
8:54 AM,48.9,46.9,93,30.14,3.0,East,8.1,-,N/A,,Overcast,80,2013-04-27 13:54:00
9:54 AM,48.9,46.9,93,30.13,3.0,East,10.4,-,0.01,Rain,Light Rain,80,2013-04-27 14:54:00
10:24 AM,48.9,48.0,97,30.12,2.5,East,11.5,-,0.00,,Overcast,90,2013-04-27 15:24:00
10:35 AM,50.0,48.0,93,30.12,4.0,East,10.4,-,0.00,,Overcast,90,2013-04-27 15:35:00
10:52 AM,50.0,48.2,94,30.12,4.0,East,9.2,-,0.00,,Overcast,80,2013-04-27 15:52:00
10:54 AM,50.0,48.0,93,30.13,4.0,East,8.1,-,0.00,,Overcast,90,2013-04-27 15:54:00
11:54 AM,50.0,48.0,93,30.12,2.5,East,10.4,-,N/A,,Overcast,100,2013-04-27 16:54:00
12:39 PM,51.1,48.9,92,30.10,1.8,East,8.1,-,N/A,,Overcast,90,2013-04-27 17:39:00
12:51 PM,51.8,48.2,88,30.10,2.0,East,9.2,-,N/A,,Overcast,100,2013-04-27 17:51:00
12:54 PM,51.1,48.9,92,30.10,2.0,East,9.2,-,N/A,,Overcast,90,2013-04-27 17:54:00
1:02 PM,51.1,48.9,92,30.09,1.5,East,8.1,-,N/A,,Overcast,90,2013-04-27 18:02:00
1:54 PM,51.1,48.9,92,30.08,2.0,ENE,8.1,-,0.00,,Overcast,70,2013-04-27 18:54:00
2:17 PM,51.1,50.0,96,30.07,4.0,ENE,6.9,-,N/A,,Overcast,60,2013-04-27 19:17:00
2:54 PM,51.1,48.9,92,30.07,6.0,NE,6.9,-,0.02,Rain,Light Rain,50,2013-04-27 19:54:00
3:54 PM,51.1,50.0,96,30.05,5.0,NNE,6.9,-,0.06,Rain,Light Rain,20,2013-04-27 20:54:00
4:18 PM,52.0,50.0,93,30.03,8.0,NE,6.9,-,0.01,Rain,Light Rain,40,2013-04-27 21:18:00
4:54 PM,52.0,50.0,93,30.03,10.0,NE,5.8,-,0.02,Rain,Light Rain,40,2013-04-27 21:54:00
5:54 PM,52.0,50.0,93,30.02,10.0,NNE,5.8,-,0.00,Rain,Light Rain,20,2013-04-27 22:54:00
6:11 PM,51.1,48.9,92,30.01,9.0,NNE,6.9,-,0.01,Rain,Light Rain,20,2013-04-27 23:11:00
6:29 PM,52.0,50.0,93,30.01,8.0,North,5.8,-,0.01,Rain,Light Rain,10,2013-04-27 23:29:00
6:31 PM,52.0,50.0,93,30.01,8.0,NNE,6.9,-,0.01,Rain,Light Rain,20,2013-04-27 23:31:00
6:46 PM,52.0,50.0,93,30.01,9.0,NNE,6.9,-,0.01,,Overcast,20,2013-04-27 23:46:00
6:54 PM,52.0,50.0,93,30.01,8.0,NNE,6.9,-,0.01,,Overcast,30,2013-04-27 23:54:00
7:02 PM,51.1,50.0,96,30.00,9.0,NNE,8.1,-,N/A,,Overcast,30,2013-04-28 00:02:00
7:50 PM,51.8,48.2,88,30.00,10.0,NNE,4.6,-,N/A,,Overcast,20,2013-04-28 00:50:00
7:54 PM,51.1,48.9,92,30.01,10.0,NNE,3.5,-,N/A,,Overcast,20,2013-04-28 00:54:00
8:06 PM,51.1,48.9,92,30.01,8.0,North,3.5,-,N/A,,Overcast,10,2013-04-28 01:06:00
8:12 PM,51.1,48.9,92,30.00,6.0,North,3.5,-,N/A,,Overcast,360,2013-04-28 01:12:00
8:54 PM,51.1,48.9,92,30.01,5.0,North,4.6,-,0.01,Rain,Light Rain,350,2013-04-28 01:54:00
9:42 PM,50.0,48.9,96,30.01,5.0,North,6.9,-,0.01,,Overcast,350,2013-04-28 02:42:00
9:54 PM,50.0,48.9,96,30.01,6.0,NNW,5.8,-,0.01,,Overcast,340,2013-04-28 02:54:00
10:02 PM,50.0,48.9,96,30.00,7.0,NNW,5.8,-,N/A,,Overcast,340,2013-04-28 03:02:00
10:31 PM,50.0,48.9,96,30.00,10.0,NNW,5.8,-,N/A,,Overcast,340,2013-04-28 03:31:00
10:54 PM,50.0,48.9,96,30.00,10.0,NNW,5.8,-,N/A,,Overcast,330,2013-04-28 03:54:00
11:54 PM,50.0,48.9,96,29.98,10.0,NNW,4.6,-,N/A,,Overcast,330,2013-04-28 04:54:00